Location: Zapote
(9.9191°N, 84.0597°W)
Time: 04:09:30
(UTC-06:00)

Hubble Space Telescope - Pass Details

Date: 30 January 2021
Orbit: 536 x 539 km, 28.5° (Epoch: 28 February)

Event Time Altitude Azimuth Distance (km) Brightness Sun altitude
Rises 18:17:13 0° 301° (WNW) 2,668 5.0 -9.5°
Reaches altitude 10° 18:19:29 10° 303° (WNW) 1,778 4.0 -10.0°
Maximum altitude 18:23:35 72° 28° (NNE) 563 0.7 -11.0°
Enters shadow 18:27:31 11° 112° (ESE) 1,709 2.9 -11.9°
